| time (UTC) | temp F | wind direction | speed knots | gust knots | rain 1hr in | rain 24hr in | rain mn in | humidity % | barometer mb |
| 20260508221541 | 73 | 268 | 7.0 | 10.4 | 0.00 | 0.00 | 0.00 | 27 | 1007.7 |
| 20260508220039 | 73 | 267 | 6.1 | 13.0 | 0.00 | 0.00 | 0.00 | 28 | 1007.8 |
| 20260508214546 | 75 | 248 | 7.0 | 13.0 | 0.00 | 0.00 | 0.00 | 26 | 1007.9 |
| 20260508213037 | 74 | 274 | 10.4 | 14.8 | 0.00 | 0.00 | 0.00 | 24 | 1007.9 |
| 20260508211535 | 74 | 273 | 5.2 | 11.3 | 0.00 | 0.00 | 0.00 | 28 | 1008.1 |
| 20260508210034 | 72 | 277 | 6.1 | 12.2 | 0.00 | 0.00 | 0.00 | 29 | 1008.4 |
| 20260508204536 | 72 | 294 | 7.8 | 11.3 | 0.00 | 0.00 | 0.00 | 29 | 1008.4 |
| 20260508203031 | 73 | 297 | 4.3 | 12.2 | 0.00 | 0.00 | 0.00 | 28 | 1008.6 |
| 20260508201530 | 74 | 304 | 7.0 | 13.0 | 0.00 | 0.00 | 0.00 | 27 | 1008.7 |
| 20260508200031 | 74 | 281 | 6.1 | 10.4 | 0.00 | 0.00 | 0.00 | 32 | 1008.9 |
| 20260508194527 | 73 | 298 | 5.2 | 12.2 | 0.00 | 0.00 | 0.00 | 27 | 1009.0 |
| 20260508193025 | 73 | 261 | 7.8 | 14.8 | 0.00 | 0.00 | 0.00 | 32 | 1009.0 |
| 20260508191528 | 73 | 278 | 9.6 | 15.6 | 0.00 | 0.00 | 0.00 | 28 | 1009.1 |
| 20260508190026 | 71 | 285 | 7.8 | 13.0 | 0.00 | 0.00 | 0.00 | 30 | 1009.3 |
| 20260508184521 | 70 | 279 | 5.2 | 9.6 | 0.00 | 0.00 | 0.00 | 34 | 1009.4 |
| 20260508183020 | 71 | 271 | 5.2 | 14.8 | 0.00 | 0.00 | 0.00 | 35 | 1009.5 |
| 20260508181518 | 70 | 274 | 10.4 | 14.8 | 0.00 | 0.00 | 0.00 | 31 | 1009.7 |
| 20260508180020 | 70 | 290 | 3.5 | 14.8 | 0.00 | 0.00 | 0.00 | 33 | 1009.8 |
| 20260508174516 | 70 | 304 | 8.7 | 16.5 | 0.00 | 0.00 | 0.00 | 36 | 1009.9 |
| 20260508173013 | 69 | 263 | 3.5 | 11.3 | 0.00 | 0.00 | 0.00 | 34 | 1010.1 |
| 20260508171514 | 68 | 274 | 6.1 | 13.9 | 0.00 | 0.00 | 0.00 | 33 | 1010.3 |
| 20260508170010 | 68 | 278 | 7.0 | 13.0 | 0.00 | 0.00 | 0.00 | 34 | 1010.4 |
| 20260508164508 | 67 | 310 | 5.2 | 12.2 | 0.00 | 0.00 | 0.00 | 32 | 1010.5 |
| 20260508163005 | 67 | 304 | 5.2 | 11.3 | 0.00 | 0.00 | 0.00 | 34 | 1010.6 |
| 20260508161503 | 66 | 291 | 6.1 | 10.4 | 0.00 | 0.00 | 0.00 | 35 | 1010.5 |
| 20260508160003 | 65 | 283 | 6.1 | 13.0 | 0.00 | 0.00 | 0.00 | 31 | 1010.6 |
| 20260508154600 | 65 | 278 | 6.1 | 10.4 | 0.00 | 0.00 | 0.00 | 34 | 1010.6 |
| 20260508153057 | 64 | 259 | 8.7 | 13.0 | 0.00 | 0.00 | 0.00 | 35 | 1010.7 |
| 20260508151555 | 62 | 266 | 7.0 | 11.3 | 0.00 | 0.00 | 0.00 | 42 | 1010.8 |
| 20260508150048 | 59 | 281 | 6.1 | 9.6 | 0.00 | 0.00 | 0.00 | 45 | 1010.8 |
| 20260508144547 | 57 | 278 | 5.2 | 8.7 | 0.00 | 0.00 | 0.00 | 49 | 1010.7 |
| 20260508143057 | 56 | 278 | 5.2 | 10.4 | 0.00 | 0.00 | 0.00 | 53 | 1010.6 |
| 20260508141552 | 54 | 281 | 5.2 | 8.7 | 0.00 | 0.00 | 0.00 | 56 | 1010.5 |
| 20260508140044 | 53 | 289 | 4.3 | 7.8 | 0.00 | 0.00 | 0.00 | 59 | 1010.5 |
| 20260508134542 | 52 | 278 | 4.3 | 8.7 | 0.00 | 0.00 | 0.00 | 62 | 1010.5 |
| 20260508133053 | 52 | 270 | 5.2 | 8.7 | 0.00 | 0.00 | 0.00 | 61 | 1010.5 |
| 20260508131540 | 51 | 269 | 4.3 | 7.0 | 0.00 | 0.00 | 0.00 | 65 | 1010.4 |
| 20260508130036 | 51 | 274 | 4.3 | 8.7 | 0.00 | 0.00 | 0.00 | 65 | 1010.1 |
| 20260508124533 | 51 | 284 | 4.3 | 7.8 | 0.00 | 0.00 | 0.00 | 65 | 1009.9 |
| 20260508123032 | 51 | 283 | 5.2 | 9.6 | 0.00 | 0.00 | 0.00 | 64 | 1009.7 |
| 20260508121551 | 51 | 264 | 5.2 | 9.6 | 0.00 | 0.00 | 0.00 | 64 | 1009.2 |
| 20260508120029 | 51 | 266 | 5.2 | 7.8 | 0.00 | 0.00 | 0.00 | 65 | 1008.9 |
| 20260508114525 | 51 | 276 | 3.5 | 8.7 | 0.00 | 0.00 | 0.00 | 65 | 1008.8 |
| 20260508113024 | 52 | 266 | 5.2 | 9.6 | 0.00 | 0.00 | 0.00 | 64 | 1008.8 |
| 20260508111523 | 53 | 278 | 6.1 | 11.3 | 0.00 | 0.00 | 0.00 | 63 | 1008.6 |
| 20260508110022 | 54 | 269 | 7.0 | 13.0 | 0.00 | 0.00 | 0.00 | 63 | 1008.6 |
| 20260508104525 | 55 | 262 | 7.8 | 13.9 | 0.00 | 0.00 | 0.00 | 62 | 1008.8 |
| 20260508103021 | 56 | 261 | 9.6 | 14.8 | 0.00 | 0.00 | 0.00 | 64 | 1008.8 |
| 20260508101520 | 56 | 259 | 7.8 | 13.0 | 0.00 | 0.00 | 0.00 | 65 | 1008.7 |
| 20260508100021 | 55 | 251 | 6.1 | 12.2 | 0.00 | 0.00 | 0.00 | 65 | 1008.7 |
| 20260508094518 | 56 | 270 | 4.3 | 9.6 | 0.00 | 0.00 | 0.00 | 66 | 1008.9 |
| 20260508093023 | 55 | 258 | 4.3 | 8.7 | 0.00 | 0.00 | 0.00 | 67 | 1008.9 |
| 20260508091516 | 54 | 239 | 4.3 | 7.8 | 0.00 | 0.00 | 0.00 | 71 | 1009.2 |
| 20260508090017 | 53 | 218 | 1.7 | 4.3 | 0.00 | 0.00 | 0.00 | 74 | 1009.3 |
| 20260508084516 | 52 | 219 | 0.0 | 7.8 | 0.00 | 0.00 | 0.00 | 74 | 1009.3 |
| 20260508083041 | 52 | 207 | 2.6 | 6.1 | 0.00 | 0.00 | 0.00 | 76 | 1009.4 |
| 20260508081514 | 49 | 188 | 3.5 | 6.1 | 0.00 | 0.00 | 0.00 | 80 | 1009.3 |
| 20260508080011 | 49 | 191 | 4.3 | 7.0 | 0.00 | 0.00 | 0.00 | 77 | 1009.1 |
| 20260508074507 | 52 | 203 | 1.7 | 6.1 | 0.00 | 0.00 | 0.00 | 72 | 1008.8 |
| 20260508073006 | 53 | 231 | 2.6 | 7.0 | 0.00 | 0.00 | 0.00 | 70 | 1008.7 |
| 20260508071503 | 54 | 235 | 3.5 | 6.1 | 0.00 | 0.00 | 0.00 | 68 | 1008.9 |
| 20260508070004 | 55 | 257 | 5.2 | 9.6 | 0.00 | 0.00 | 0.00 | 66 | 1008.7 |
| 20260508064504 | 55 | 227 | 4.3 | 7.8 | 0.00 | 0.00 | 0.00 | 67 | 1008.9 |
| 20260508063100 | 53 | 279 | 2.6 | 5.2 | 0.00 | 0.00 | 0.00 | 71 | 1008.8 |
| 20260508061559 | 55 | 264 | 4.3 | 7.8 | 0.00 | 0.00 | 0.00 | 66 | 1009.0 |
| 20260508054555 | 56 | 228 | 2.6 | 6.1 | 0.00 | 0.00 | 0.00 | 63 | 1009.4 |
| 20260508053048 | 57 | 261 | 3.5 | 7.8 | 0.00 | 0.00 | 0.00 | 61 | 1009.3 |
| 20260508053017 | 57 | 252 | 3.5 | 7.8 | 0.00 | 0.00 | 0.00 | 61 | 1009.3 |
| 20260508051545 | 57 | 239 | 3.5 | 6.1 | 0.00 | 0.00 | 0.00 | 61 | 1009.3 |
| 20260508050046 | 57 | 238 | 2.6 | 7.0 | 0.00 | 0.00 | 0.00 | 58 | 1009.3 |
| 20260508044541 | 58 | 276 | 4.3 | 7.0 | 0.00 | 0.00 | 0.00 | 56 | 1009.3 |
| 20260508043041 | 61 | 264 | 3.5 | 8.7 | 0.00 | 0.00 | 0.00 | 51 | 1009.3 |
| 20260508041540 | 61 | 224 | 3.5 | 6.1 | 0.00 | 0.00 | 0.00 | 49 | 1009.1 |
| 20260508040039 | 59 | 270 | 1.7 | 4.3 | 0.00 | 0.00 | 0.00 | 53 | 1009.2 |
| 20260508034539 | 57 | 191 | 1.7 | 2.6 | 0.00 | 0.00 | 0.00 | 56 | 1009.2 |
| 20260508033038 | 56 | 193 | 0.9 | 2.6 | 0.00 | 0.00 | 0.00 | 56 | 1009.2 |
| 20260508031538 | 58 | 155 | 1.7 | 3.5 | 0.00 | 0.00 | 0.00 | 52 | 1009.1 |
| 20260508030038 | 60 | 186 | 1.7 | 4.3 | 0.00 | 0.00 | 0.00 | 47 | 1009.2 |
| 20260508024548 | 60 | 183 | 1.7 | 2.6 | 0.00 | 0.00 | 0.00 | 44 | 1008.9 |
| 20260508023038 | 63 | 177 | 1.7 | 2.6 | 0.00 | 0.00 | 0.00 | 40 | 1008.9 |
| 20260508021536 | 64 | 200 | 0.0 | 0.0 | 0.00 | 0.00 | 0.00 | 36 | 1008.7 |
| 20260508020039 | 67 | 260 | 0.0 | 0.0 | 0.00 | 0.00 | 0.00 | 33 | 1008.6 |
| 20260508014536 | 68 | 259 | 0.0 | 0.9 | 0.00 | 0.00 | 0.00 | 32 | 1008.6 |
| 20260508013035 | 68 | 269 | 0.9 | 1.7 | 0.00 | 0.00 | 0.00 | 34 | 1008.6 |
| 20260508011547 | 69 | 276 | 0.0 | 0.9 | 0.00 | 0.00 | 0.00 | 33 | 1008.4 |
| 20260508010034 | 69 | 281 | 0.9 | 2.6 | 0.00 | 0.00 | 0.00 | 35 | 1008.5 |
| 20260508004549 | 70 | 269 | 1.7 | 3.5 | 0.00 | 0.00 | 0.00 | 35 | 1008.5 |
| 20260508003037 | 72 | 249 | 2.6 | 3.5 | 0.00 | 0.00 | 0.00 | 32 | 1008.5 |
| 20260508001537 | 72 | 268 | 0.9 | 7.0 | 0.00 | 0.00 | 0.00 | 34 | 1008.6 |
| 20260508000030 | 72 | 263 | 2.6 | 6.1 | 0.00 | 0.00 | 0.00 | 33 | 1008.6 |
| 20260507234530 | 71 | 262 | 3.5 | 7.8 | 0.00 | 0.00 | 0.00 | 34 | 1008.7 |
| 20260507233029 | 72 | 285 | 5.2 | 7.8 | 0.00 | 0.00 | 0.00 | 33 | 1008.9 |
| 20260507231527 | 73 | 274 | 7.0 | 9.6 | 0.00 | 0.00 | 0.00 | 30 | 1008.9 |
| 20260507230028 | 75 | 266 | 4.3 | 8.7 | 0.00 | 0.02 | 0.00 | 29 | 1008.9 |
| 20260507224526 | 73 | 226 | 0.9 | 2.6 | 0.00 | 0.02 | 0.00 | 28 | 1009.1 |
| 20260507223025 | 72 | 245 | 0.0 | 2.6 | 0.00 | 0.02 | 0.00 | 33 | 1009.2 |